Weather History for Swansboro, NC

Change the Weather History Date:

Friday, August 16, 2013

  Actual Average (KNKT) Record (KNKT)
Temperature  
Mean Temperature 74 °F -  
Max Temperature 77 °F 85 °F 93 °F (2005)
Min Temperature 71 °F 68 °F 64 °F (2006)
Cooling Degree Days 9    
Growing Degree Days 24 (Base 50)    
Moisture  
Dew Point 66 °F    
Average Humidity 77    
Maximum Humidity 84    
Minimum Humidity 69    
Precipitation  
Precipitation 0.00 in - - ()
Sea Level Pressure  
Sea Level Pressure 30.10 in    
Wind  
Wind Speed 6 mph (NNE)    
Max Wind Speed 9 mph    
Max Gust Speed -    
Visibility 10 miles    
Events Rain    
Averages and records for this station are not official NWS values.
T = Trace of Precipitation, MM = Missing Value Source: NWS Daily Summary

Daily Weather History Graph

Daily Weather History Graph

Search for Another Location

Airport:

Trip Planner

Search our weather history database for the weather conditions in past years. The results will help you decide how hot, cold, wet, or windy it might be!

Date:

Astronomy

Aug. 16, 2013 Rise Set
Actual Time 6:29 AM EDT 7:54 PM EDT
Civil Twilight 6:02 AM EDT 8:21 PM EDT
Nautical Twilight 5:31 AM EDT 8:52 PM EDT
Astronomical Twilight 4:57 AM EDT 9:26 PM EDT
Moon 4:06 PM EDT (8/16) 1:34 AM EDT (8/16)
Length of Visible Light 14h 18m
Length of Day
13h 25m
Waxing Gibbous, 74% of the Moon is Illuminated
Aug 16
Waxing Gibbous
Aug 20
Full
Aug 28
Last Quarter
Sep 5
New
Sep 12
First Quarter

Hourly Weather History & Observations

Time (EDT) Temp. Dew Point Humidity Pressure Visibility Wind Dir Wind Speed Gust Speed Precip Events Conditions
12:24 AM - - N/A% 30.09 in 10.0 mi North 4.6 mph - N/A   Overcast
12:57 AM - - N/A% 30.10 in 10.0 mi North 8.1 mph - N/A   Overcast
1:19 AM - - N/A% 30.07 in 10.0 mi North 5.8 mph - N/A   Overcast
1:57 AM - - N/A% 30.08 in 10.0 mi North 4.6 mph - N/A   Overcast
2:11 AM - - N/A% 30.06 in 10.0 mi North 5.8 mph - N/A   Overcast
2:57 AM - - N/A% 30.07 in 10.0 mi North 6.9 mph - N/A   Overcast
3:57 AM - - N/A% 30.07 in 10.0 mi North 4.6 mph - N/A   Overcast
4:25 AM - - N/A% 30.05 in 10.0 mi North 5.8 mph - N/A   Overcast
4:57 AM - - N/A% 30.07 in 10.0 mi North 6.9 mph - N/A   Overcast
5:08 AM - - N/A% 30.05 in 10.0 mi North 8.1 mph - N/A   Overcast
5:23 AM - - N/A% 30.06 in 10.0 mi North 6.9 mph - N/A   Overcast
5:57 AM - - N/A% 30.09 in 10.0 mi North 6.9 mph - N/A   Overcast
6:57 AM 71.1 °F 66.0 °F 84% 30.09 in 10.0 mi NNE 6.9 mph - N/A   Overcast
7:36 AM 71.6 °F 66.2 °F 83% 30.09 in 8.0 mi North 5.8 mph - 0.00 in Rain Light Rain
7:57 AM 72.0 °F 66.0 °F 81% 30.10 in 7.0 mi North 6.9 mph - 0.00 in Rain Light Rain
8:38 AM 71.6 °F 66.2 °F 83% 30.10 in 10.0 mi NNE 8.1 mph - N/A   Overcast
8:57 AM 72.0 °F 66.0 °F 81% 30.12 in 10.0 mi NNE 6.9 mph - N/A   Overcast
9:57 AM 73.0 °F 66.9 °F 81% 30.12 in 10.0 mi NNE 9.2 mph - N/A   Overcast
10:46 AM 73.4 °F 66.2 °F 78% 30.12 in 10.0 mi NE 6.9 mph - N/A   Overcast
10:57 AM 73.9 °F 66.9 °F 79% 30.13 in 10.0 mi NE 6.9 mph - N/A   Overcast
11:57 AM 75.0 °F 66.9 °F 76% 30.13 in 10.0 mi NNE 8.1 mph - N/A   Overcast
12:57 PM 75.9 °F 66.9 °F 74% 30.12 in 10.0 mi NNE 5.8 mph - N/A   Overcast
1:57 PM 75.9 °F 66.9 °F 74% 30.12 in 10.0 mi NNE 6.9 mph - N/A   Overcast
2:57 PM 75.0 °F 66.9 °F 76% 30.11 in 10.0 mi North 5.8 mph - 0.00 in Rain Light Rain
3:47 PM 75.2 °F 66.2 °F 73% 30.10 in 10.0 mi NNE 8.1 mph - 0.00 in   Overcast
3:57 PM 75.9 °F 66.9 °F 74% 30.10 in 10.0 mi NNE 6.9 mph - 0.00 in   Overcast
4:57 PM 77.0 °F 66.0 °F 69% 30.11 in 10.0 mi NE 8.1 mph - N/A   Overcast
5:57 PM 75.9 °F 66.0 °F 71% 30.12 in 10.0 mi NE 8.1 mph - N/A   Overcast
6:57 PM 75.0 °F 66.0 °F 73% 30.12 in 10.0 mi NNE 9.2 mph - N/A   Overcast
7:41 PM 73.4 °F 66.2 °F 78% 30.10 in 10.0 mi NE 6.9 mph - 0.00 in Rain Light Rain
7:57 PM 73.9 °F 66.0 °F 76% 30.12 in 10.0 mi NE 5.8 mph - 0.00 in   Mostly Cloudy
8:18 PM 73.4 °F 66.2 °F 78% 30.11 in 10.0 mi NNE 5.8 mph - N/A   Mostly Cloudy
8:57 PM 73.0 °F 66.0 °F 79% 30.12 in 10.0 mi NE 3.5 mph - N/A   Partly Cloudy
9:57 PM 72.0 °F 66.0 °F 81% 30.16 in 10.0 mi NW 4.6 mph - N/A   Mostly Cloudy
10:57 PM 72.0 °F 64.9 °F 78% 30.15 in 10.0 mi North 4.6 mph - N/A   Mostly Cloudy
11:26 PM 71.6 °F 64.4 °F 78% 30.14 in 10.0 mi North 6.9 mph - N/A   Overcast
11:57 PM 71.1 °F 64.0 °F 78% 30.15 in 10.0 mi North 8.1 mph - N/A   Overcast